Location: Beccas
(43.4309°N, 0.1528°E)
Time: 13:32:40
(UTC+00:00)

Transit 2A Rocket - Pass Details

Date: 28 May 2022
Orbit: 593 x 908 km, 66.7° (Epoch: 30 June)

Event Time Altitude Azimuth Distance (km) Brightness Sun altitude
Rises 22:26:57 0° 318° (NW) 2,893 9.2 -21.8°
Reaches altitude 10° 22:29:31 10° 305° (NW) 1,957 7.9 -22.0°
Maximum altitude 22:33:07 26° 249° (WSW) 1,195 6.0 -22.2°
Enters shadow 22:33:34 25° 239° (WSW) 1,209 5.9 -22.2°
